Location: Kellogg
(38.0159°N, 90.0546°W)
Time: 21:20:10
(UTC+00:00)

Vanguard 1 - Pass Details

Date: 17 September 2024
Orbit: 648 x 3825 km, 34.3° (Epoch: 12 October)

Event Time Altitude Azimuth Distance (km) Brightness Sun altitude
Rises 13:23:53 0° 187° (S) 7,878 14.8 18.7°
Reaches altitude 10° 13:34:34 10° 165° (SSE) 6,430 14.7 20.7°
Maximum altitude 13:41:49 13° 143° (SE) 5,680 15.0 22.1°
Drops below altitude 10° 13:48:01 10° 120° (ESE) 5,410 15.6 23.3°
Sets 13:54:53 0° 96° (E) 5,707 15.3 24.5°
